THOR ABLESTAR DEB, 18908

Orbit data source: Space-Track

THOR ABLESTAR DEB, 18908 is space debris in LEO originally from a launch on Thu, 29 Jun 1961 UTC launched from the Air Force Eastern Test Range (AFETR). Debris objects in space refer to the collection of defunct objects orbiting the Earth. Examples of debris include non-operational satellites, rocket bodies, and fragments generated from explosions, collisions, or faulty payload assembly.

Loading next visibility...
Identifier
18908, 1961-015LY
Orbit
LEO
Country
Flag of USUS
Related business
Manufacturer
Unknown
Mission
Spacecraft
Bus & Motor
Unknown
Mass
Unknown
Launch date (UTC)
1961-06-29 (64 years ago)
Launch vehicle
Unknown
Launch site
Air Force Eastern Test Range (AFETR)
Object type
Payload
Rocket body
Debris
Shape & HBR
Unknown shape, 0.1 m
Radar Cross Section
Small (<0.1 m²)

Expand to show TLE details & history
Last TLE update: 23 hours ago

TLE from 23 hours ago
0 THOR ABLESTAR DEB
1 18908U 61015LY  25349.27825745  .00116104  00000-0  32251-2 0  9990
2 18908  65.6918 304.7506 0020516  37.3484 322.9080 15.36044134 12548
Epoch: 2025-12-15T06:40Z
TLE epoch observation values (Epoch: 2025-12-15T06:40:41.443Z)
Latitude
-0.00006°
Longitude
120.39878°
Altitude
448.769 km
Speed
7.65 km/s
True Right ascension
20h 19m 00s
True Declination
0° 00' 00"
Sunlit
Object was in daylight at epoch
Visualization orbit readout
Latitude
Unknown
Longitude
Unknown
Altitude
Unknown
Speed
Unknown
Apparent Right ascension
Unknown
Apparent Declination
Unknown
Sunlit
N/A
Visualization observer readout
Local Sidereal Time
04:41:25
Azimuth
Unknown
Elevation
Unknown
Doppler factor
Unknown
Orbital elements
Apogee altitude
470.263 km
Perigee altitude
442.22 km
Semi-major axis
6,834.379 km
Eccentricity
0.00205
Inclination
65.6918°
RAAN
304.7506°
Arg. of periapsis
37.3484°
True anomaly
322.76592°
Mean anomaly
322.908°
Eccentric anomaly
322.83699°
Mean motion
3.84145 °/min
Orbital period
93.71 mins
BSTAR
0.0032251
Loading maneuver chart data...
Computing Atmospheric mass density...
Loading historical data...
Loading historical data...
Loading historical data...
Loading historical data...
Loading historical data...
Loading historical data...
Loading historical data...

Documentation

Showing up to 5 results
|